CAPE
708 856 854 787 747 631 481 535 618 704 808 937 916 579 415 549 666 741 725 555 366 210 71 26 11 0 0 0 0 0 0 0
681 776 842 715 634 436 364 440 504 594 664 731 595 401 322 374 471 621 581 462 210 84 17 7 0 0 0 0 0 0 0 0
570 638 682 711 625 493 375 408 419 490 574 548 344 183 193 260 282 460 389 239 71 34 1 0 0 0 0 0 0 0 0 1
405 521 561 542 567 574 307 384 339 375 414 345 134 47 40 97 143 307 227 111 10 1 0 0 0 0 0 0 0 0 0 0
351 363 362 404 578 407 317 348 254 199 169 111 19 12 21 14 1 75 31 31 0 0 0 0 0 0 0 0 0 0 0 0
116 285 392 390 374 243 255 192 139 97 79 22 1 0 0 0 0 0 0 0 0 0 0 0 0 0 0 0 0 0 0 0
1 28 163 0 169 128 117 99 83 36 27 20 0 0 0 0 0 0 0 0 0 0 0 0 0 0 0 0 0 0 0 0
0 0 7 0 32 4 15 4 4 0 1 5 0 0 0 0 0 0 0 0 0 0 0 0 0 0 0 0 0 0 0 0
0 0 0 0 0 0 0 0 0 0 0 0 0 0 0 0 0 0 0 0 0 0 0 0 0 0 0 0 0 0 0 0
34 0 0 0 1 0 0 0 0 0 0 0 0 0 0 0 0 0 0 0 0 0 0 0 0 0 0 0 0 0 0 0
263 98 1 0 163 0 0 0 0 0 0 0 0 0 0 0 0 0 0 0 0 0 0 0 0 0 0 0 0 0 0 126
516 358 137 12 25 204 0 0 2 0 0 0 5 0 0 0 0 0 0 0 0 0 0 0 0 0 0 0 1 26 88 280
776 622 399 107 13 578 353 133 241 90 74 160 50 52 0 116 50 6 0 0 0 0 0 0 0 0 2 1 20 88 80 71
992 877 748 352 109 291 943 568 403 389 310 476 403 196 135 135 304 194 143 40 45 46 11 6 5 3 27 5 198 93 31 48
1177 1089 1115 857 397 277 575 974 424 651 488 550 754 663 348 256 450 543 385 367 155 115 116 156 170 2 49 166 125 241 0 0
1211 1269 1339 1254 1045 572 327 1275 1301 917 1076 744 582 1142 896 630 560 629 784 465 596 266 172 246 207 246 42 90 0 0 229 87
1214 1323 1431 1575 1487 1434 567 642 1241 1360 1148 1043 827 821 1313 1265 1009 847 759 949 735 636 328 254 264 342 320 95 25 0 0 0
1149 1261 1348 1700 1673 1688 1379 941 870 1028 1213 1086 1122 964 1145 1395 1456 1292 1048 919 1025 814 474 292 407 354 309 310 518 451 167 0
99 766 710 1161 1606 1498 1573 1390 1247 1111 1142 1154 1312 1309 1192 1357 1507 1497 1413 1259 1091 993 608 549 416 416 426 334 406 504 160 25
0 2 0 295 651 1062 1205 1400 1213 1172 1033 1138 1244 1379 1380 1335 1366 1537 1477 1436 1387 1158 871 544 673 518 561 470 537 523 483 4
CIN
-585 -504 -520 -513 -488 -495 -513 -429 -342 -259 -187 -135 -137 -174 -181 -128 -109 -108 -112 -142 -165 -187 -240 -305 -326 -28 0 0 0 0 0 0
-592 -544 -518 -529 -521 -590 -589 -498 -408 -319 -245 -182 -197 -248 -258 -196 -148 -117 -133 -167 -224 -253 -339 -364 0 0 0 0 0 0 0 0
-645 -611 -565 -531 -530 -553 -580 -516 -459 -370 -288 -263 -314 -369 -348 -284 -244 -164 -176 -217 -325 -372 -59 0 0 0 0 0 0 0 0 -124
-741 -669 -629 -603 -561 -519 -604 -520 -488 -422 -359 -351 -448 -550 -548 -417 -354 -220 -238 -320 -472 -214 0 0 0 0 0 0 0 0 0 0
-761 -745 -733 -681 -572 -606 -601 -555 -555 -539 -510 -515 -659 -383 -604 -624 -95 -401 -475 -429 0 0 0 0 0 0 0 0 0 0 0 0
-903 -764 -712 -692 -662 -691 -663 -665 -660 -650 -617 -636 -499 0 0 0 0 0 0 0 0 0 0 0 0 0 0 0 0 0 0 0
-674 -1032 -823 0 -778 -764 -746 -736 -728 -762 -736 -688 0 0 0 0 0 0 0 0 0 0 0 0 0 0 0 0 0 0 0 0
0 0 -650 0 -895 -314 -842 -296 -250 0 -300 -796 0 0 0 0 0 0 0 0 0 0 0 0 0 0 0 0 0 0 0 0
0 0 0 0 0 0 0 0 0 0 0 0 0 0 0 0 0 0 0 0 0 0 0 0 0 0 0 0 0 0 0 0
-778 0 0 0 -170 0 0 0 0 0 0 0 0 0 0 0 0 0 0 0 0 0 0 0 0 0 0 0 0 0 0 -57
-622 -691 -378 0 -733 0 0 0 0 0 0 0 0 0 0 0 0 0 0 0 0 0 0 0 0 0 0 0 0 0 0 -212
-545 -599 -690 -764 -762 -625 0 0 -537 0 0 -39 -670 0 0 0 0 0 0 0 0 0 0 0 0 0 0 0 -353 -363 -239 -184
-448 -496 -594 -628 -662 -461 -531 -670 -631 -680 -673 -604 -671 -648 0 -528 -507 -553 0 0 0 0 0 0 0 0 -461 -507 -423 -320 -312 -306
-360 -441 -513 -564 -608 -560 -393 -492 -535 -533 -527 -476 -474 -520 -560 -532 -438 -446 -427 -474 -504 -480 -527 -122 -415 -563 -343 -68 -177 -278 -391 -349
-272 -355 -418 -476 -549 -526 -343 -292 -393 -387 -488 -463 -437 -405 -451 -477 -391 -366 -390 -387 -440 -440 -410 -351 -307 -443 -344 -211 -163 -212 0 0
-219 -302 -364 -397 -367 -404 -430 -302 -291 -390 -371 -421 -460 -318 -351 -374 -356 -335 -314 -392 -345 -408 -409 -348 -289 -298 -441 -349 0 0 -249 -227
-238 -255 -332 -361 -357 -308 -408 -358 -271 -276 -316 -330 -383 -415 -292 -270 -282 -292 -314 -271 -322 -344 -387 -398 -352 -256 -290 -354 -404 0 0 0
-254 -260 -287 -328 -332 -272 -293 -318 -291 -257 -237 -290 -293 -358 -309 -256 -233 -246 -279 -286 -272 -316 -372 -406 -326 -293 -294 -271 -215 -184 -309 0
-591 -328 -318 -253 -228 -233 -272 -270 -231 -238 -255 -252 -250 -254 -279 -306 -306 -267 -244 -264 -261 -242 -309 -294 -335 -287 -278 -335 -260 -226 -301 -475
0 -78 0 -402 -371 -271 -225 -186 -221 -232 -286 -227 -198 -201 -241 -236 -261 -236 -241 -217 -197 -202 -236 -312 -248 -279 -253 -271 -231 -258 -216 -510
Wind_Speed
15 13 15 18 18 18 17 17 17 15 15 14 15 14 12 10 10 10 11 12 11 10 9 8 7 5 3 3 4 4 2 2
15 15 11 11 11 17 17 17 16 16 15 13 12 13 13 12 10 10 10 11 11 11 10 8 6 4 2 1 4 3 3 1
14 15 15 12 10 11 15 17 17 16 14 14 11 6 8 10 9 11 11 10 10 10 10 8 6 4 5 5 3 1 3 2
14 15 15 14 11 12 9 10 8 8 9 10 6 6 5 7 8 11 10 10 10 10 10 8 6 2 3 6 0 3 2 3
12 14 14 14 10 10 6 6 6 6 9 8 6 6 5 4 3 4 4 7 3 5 5 3 5 3 3 4 4 1 3 3
11 11 11 9 8 9 9 7 7 7 8 9 7 5 6 5 4 4 5 4 5 5 3 4 5 5 5 5 5 4 3 2
12 11 11 7 10 7 8 8 8 8 8 9 8 6 6 5 5 5 4 4 4 4 4 4 5 5 5 6 6 6 4 3
15 13 11 9 9 9 8 8 8 7 7 9 9 7 6 6 5 6 5 5 4 5 5 5 5 5 6 6 7 5 6 5
19 17 14 12 11 10 8 8 8 8 8 8 10 7 8 9 6 6 6 6 6 5 5 3 4 4 6 5 5 7 5 6
21 17 19 16 13 10 9 8 8 8 8 7 11 10 10 8 8 7 7 6 6 7 5 4 5 4 4 5 5 5 6 6
19 19 21 21 14 11 10 10 9 9 8 8 11 12 12 9 8 7 7 6 6 7 5 5 4 4 5 5 5 5 6 5
22 18 20 20 14 11 8 8 9 9 10 10 13 11 13 11 8 7 8 7 7 6 6 6 4 6 6 6 5 5 5 6
21 20 20 15 13 13 11 13 10 10 10 13 14 13 14 13 10 10 10 10 11 10 7 7 7 5 3 2 3 4 5 5
22 23 20 18 14 14 10 13 11 10 9 11 14 15 14 13 13 11 13 9 8 11 11 4 7 6 5 2 3 4 5 6
22 24 23 22 21 10 7 4 3 7 10 11 12 15 15 15 15 12 11 11 10 10 10 13 9 5 5 6 2 6 0 2
23 24 24 22 22 18 20 15 15 13 12 9 9 14 16 16 16 14 13 10 13 12 10 10 8 9 1 7 2 4 4 3
20 23 24 24 23 21 20 18 14 10 10 14 13 12 16 16 16 14 14 11 13 13 11 12 11 9 8 3 4 2 2 3
18 21 19 19 20 19 21 21 16 11 11 9 10 8 9 14 16 16 15 14 14 12 12 13 13 12 9 11 10 9 9 4
9 5 5 4 10 12 17 17 14 13 12 11 12 11 10 15 18 17 14 16 15 12 11 13 12 13 15 11 10 11 5 5
10 10 6 6 5 7 7 7 7 8 10 10 10 11 12 14 13 15 16 15 14 12 10 10 13 13 17 15 11 11 9 5
Wind_Direction
162 166 156 153 153 150 147 148 149 148 147 148 145 143 143 143 141 138 136 136 139 143 149 149 150 153 126 84 59 13 2 154
162 166 156 154 158 153 150 150 150 150 151 149 148 149 150 150 150 149 147 147 149 153 159 164 169 192 222 238 65 6 31 124
162 164 167 165 157 161 153 153 152 152 154 153 149 154 158 156 158 160 160 159 159 161 166 172 189 237 271 284 61 38 340 131
166 167 167 167 166 164 154 157 157 159 160 162 156 154 159 160 164 166 169 168 169 171 175 179 187 227 287 304 339 138 236 204
169 167 168 169 164 166 164 159 158 159 161 162 159 158 162 160 155 170 163 173 168 174 179 190 198 207 253 274 274 214 216 195
168 164 165 165 160 171 166 164 164 168 173 166 165 165 174 170 173 170 169 166 174 174 187 200 215 221 228 252 254 258 201 208
180 165 170 159 161 167 168 172 174 176 174 177 172 168 178 169 173 165 174 168 177 185 191 202 220 225 233 235 254 245 230 192
173 179 175 162 170 172 175 172 177 173 179 186 180 175 168 177 177 180 180 184 185 185 195 201 215 209 233 233 246 244 195 187
176 178 176 176 176 175 175 180 173 181 184 185 186 177 176 173 178 186 192 190 179 187 206 207 225 219 231 229 229 229 199 188
180 180 181 179 179 179 181 181 178 187 184 185 189 189 187 180 185 192 187 179 185 192 190 204 219 213 229 232 227 227 232 182
185 186 185 183 177 178 182 181 186 186 189 186 196 195 191 188 196 194 180 184 192 192 197 187 196 214 224 235 236 232 230 183
184 184 187 186 178 173 181 186 193 190 190 195 192 201 195 195 194 183 186 189 196 196 197 200 190 203 212 229 232 231 218 194
187 181 190 182 181 182 187 196 190 197 196 194 195 197 202 197 202 196 192 197 202 200 200 197 217 179 131 290 276 243 237 203
189 190 181 187 187 193 195 191 190 190 195 198 199 199 198 203 203 204 205 203 192 197 198 189 209 179 172 100 249 301 242 220
193 190 185 185 188 187 193 141 158 170 197 200 198 200 202 201 208 205 205 205 207 201 199 202 203 207 200 153 173 231 266 193
193 191 187 189 184 180 190 189 188 205 199 193 185 191 199 205 206 208 209 207 211 210 201 206 195 201 214 228 194 156 197 294
190 199 192 190 184 186 186 193 204 206 198 195 190 189 196 203 207 206 212 214 219 214 208 208 210 209 211 148 204 205 121 137
194 192 205 188 186 187 188 191 199 200 199 195 203 192 195 201 205 210 211 213 218 214 209 203 210 215 212 210 211 213 216 157
100 111 116 140 181 193 189 188 191 194 198 202 197 204 203 207 202 205 210 215 218 216 209 216 211 213 214 216 218 221 186 179
82 113 128 137 138 177 180 197 203 200 192 196 210 209 210 216 214 210 211 211 215 214 212 213 216 219 222 220 220 223 210 172